Wind_Speed
5 5 5 5 5 5 4 4 4 4 3 3 3 4 4 4 4 4 3 3 3 3 3 2 2 3 3 3 2 2 2 2 3 5 5 5 6 6 5 5 6 6 6 6 6 7 6 6 5
5 5 5 5 5 4 4 4 4 3 3 3 3 4 3 4 5 4 4 4 4 4 4 3 3 3 3 3 3 3 2 2 3 4 5 5 6 6 6 6 6 6 7 7 7 7 7 7 7
5 5 5 5 5 4 4 3 3 3 3 3 4 4 4 4 4 5 5 5 5 4 4 4 4 4 4 4 4 3 3 3 4 4 5 5 6 6 6 6 6 7 7 8 8 8 7 7 8
6 6 6 5 5 5 4 3 3 3 3 3 3 3 3 4 4 4 5 5 5 5 5 4 4 4 4 4 5 5 5 5 5 6 6 6 6 6 6 7 7 7 8 8 8 9 9 8 8
6 6 6 5 5 4 4 4 3 3 3 3 3 3 3 4 4 4 5 5 5 5 5 5 5 5 5 5 6 6 6 6 7 7 7 6 6 6 7 7 7 8 8 8 8 9 8 8 8
7 6 6 6 6 4 3 3 3 3 3 4 3 3 3 3 4 4 4 4 5 5 6 6 6 6 6 6 6 6 6 7 7 7 7 7 7 8 8 8 8 9 8 8 8 8 9 9 9
7 7 6 5 5 4 3 2 3 3 3 3 3 3 3 3 3 4 4 4 5 5 6 6 6 6 6 7 7 7 7 6 7 7 7 7 8 8 8 8 8 9 9 8 8 9 9 9 10
6 7 6 5 4 4 3 2 3 3 3 3 2 3 3 3 3 4 4 5 5 5 5 6 5 5 6 7 7 7 7 7 8 8 8 8 8 8 9 8 9 9 9 9 9 9 9 9 10
7 7 6 5 5 4 4 3 3 3 2 2 2 3 3 3 3 4 4 4 5 4 5 6 6 6 6 6 6 7 7 7 7 8 8 8 8 9 9 9 10 10 10 10 10 10 10 10 10
7 6 6 6 5 4 4 4 3 3 3 3 3 3 4 4 4 4 5 5 5 5 6 6 6 6 6 6 7 7 7 7 8 8 8 8 8 9 9 10 10 10 10 10 10 10 10 10 10
7 6 6 5 5 5 4 4 4 4 4 4 4 3 4 4 4 5 5 5 6 6 6 6 6 6 6 7 7 7 7 7 8 8 8 8 8 9 9 10 10 9 10 10 10 10 10 10 9
7 7 6 6 5 5 5 5 4 5 5 4 4 4 4 5 5 5 5 5 5 5 5 5 5 5 6 7 7 7 7 7 7 7 8 8 8 9 10 9 9 9 10 10 10 10 10 9 9
8 7 6 6 5 5 5 5 5 5 5 4 4 4 4 5 6 6 6 6 6 6 5 6 5 5 6 6 7 7 8 8 8 8 8 8 8 8 9 9 9 9 9 9 9 10 10 10 10
8 7 7 6 6 6 5 5 5 5 5 5 4 4 5 5 5 5 5 5 5 6 6 6 6 6 6 6 7 7 8 8 8 8 9 9 8 8 8 8 9 9 9 10 10 11 10 11 10
8 8 7 7 7 6 5 5 5 5 5 4 4 4 4 5 5 5 5 5 5 6 6 6 6 6 7 7 7 8 8 8 9 9 9 9 9 8 8 8 8 8 9 9 10 10 11 10 10
9 9 8 7 7 6 6 5 5 5 5 5 5 5 5 5 5 5 6 6 6 6 6 6 6 6 7 7 8 8 9 8 8 8 9 9 9 8 8 8 8 9 9 9 9 9 10 10 11
10 8 7 7 6 6 6 6 6 6 5 5 5 5 5 5 6 6 6 6 7 7 6 6 6 6 7 8 8 9 8 8 8 8 9 9 9 9 8 8 9 9 9 9 9 10 10 10 10
10 9 8 7 6 7 7 6 6 6 6 6 6 6 6 6 6 6 7 7 7 7 7 7 7 7 7 8 8 9 9 9 8 9 9 9 9 9 9 9 10 10 10 10 10 11 11 11 11
10 9 9 8 8 8 7 7 8 7 7 6 6 6 7 7 7 7 8 8 7 7 7 7 8 8 8 8 9 8 9 8 8 9 9 9 9 9 9 10 10 11 11 11 11 11 11 11 11
11 10 10 9 9 9 8 8 8 8 7 7 7 7 7 7 8 8 9 8 8 8 8 8 9 9 10 10 10 10 10 9 10 10 9 9 9 10 10 10 10 11 11 11 12 12 12 12 13
12 12 11 10 9 10 9 9 9 9 8 8 7 7 8 8 8 9 9 9 9 9 9 9 10 11 11 12 11 11 11 11 10 10 10 10 11 11 11 10 10 11 11 12 12 13 13 13 13
13 12 12 11 11 11 11 11 10 10 9 9 8 8 8 9 9 9 10 10 10 10 10 11 11 12 12 12 12 12 12 12 11 11 12 11 12 12 12 12 11 11 12 12 13 13 13 13 13
13 12 12 12 12 13 13 13 11 11 9 9 9 9 9 9 9 10 10 11 11 11 11 12 12 13 12 13 13 13 13 13 13 13 13 13 13 13 13 13 13 13 13 13 13 13 14 14 13
14 13 14 14 14 14 13 13 11 11 9 9 8 9 10 10 10 11 11 12 12 12 12 13 13 13 14 14 14 14 14 14 14 15 15 14 14 14 14 14 14 14 14 14 14 14 14 14 14
15 15 16 16 16 15 14 14 12 10 10 10 10 10 11 12 12 12 12 13 13 13 14 14 14 15 15 15 15 15 15 15 15 16 16 15 15 15 15 16 15 15 15 15 15 15 15 15 15
15 16 16 17 16 14 15 15 12 11 11 11 12 12 12 13 13 13 13 14 14 14 15 15 16 16 16 16 16 16 16 16 17 17 16 16 16 16 16 16 16 16 16 15 16 15 16 16 17
15 16 16 17 17 16 16 15 13 12 13 12 12 13 13 14 14 14 15 15 15 16 16 16 17 17 17 17 17 17 18 18 18 18 17 17 17 17 17 17 17 17 17 16 16 16 17 18 18
16 16 17 17 17 17 17 15 14 13 13 12 13 14 14 15 15 15 15 16 16 16 17 17 18 18 18 18 18 18 19 19 19 19 19 19 19 18 18 17 17 17 18 17 17 17 17 18 19
17 17 17 17 17 17 17 16 15 15 14 14 15 15 15 15 16 16 17 17 17 17 18 18 18 19 19 19 19 19 19 20 19 19 20 20 20 20 19 18 18 17 17 17 17 17 17 18 18
17 17 18 18 18 18 18 16 15 16 16 16 15 15 15 15 15 16 17 18 18 18 19 19 19 19 19 20 20 20 20 20 20 20 21 21 21 21 21 20 19 19 18 18 18 18 18 18 17
Wind_Direction
215 211 213 220 226 228 230 225 215 200 207 211 224 227 233 238 239 243 250 257 261 264 274 276 281 294 308 312 313 309 288 273 227 210 213 218 222 224 229 231 233 236 239 240 241 245 247 247 246
222 218 222 230 236 232 220 219 212 201 218 229 235 239 238 236 241 244 248 258 263 268 269 266 268 275 284 292 297 296 265 230 207 206 220 229 229 233 241 243 241 239 243 241 243 249 251 250 254
225 225 229 237 241 229 223 229 218 206 223 239 243 246 248 242 243 246 251 264 267 268 266 262 263 266 272 276 277 275 254 233 232 234 239 240 241 243 250 248 244 244 246 245 247 251 251 255 256
229 232 232 240 244 230 226 221 216 218 222 235 244 250 257 257 255 255 256 262 266 262 263 258 259 262 261 264 268 272 271 259 251 246 244 248 253 257 254 250 248 247 249 248 249 250 252 255 256
234 239 237 244 251 247 234 232 229 233 226 236 241 249 268 268 262 264 267 264 267 266 258 257 257 261 261 261 266 269 272 266 258 253 250 252 258 257 255 252 252 255 257 252 253 253 255 257 256
236 241 236 243 250 249 235 235 240 231 234 242 246 257 272 277 267 263 271 270 275 271 259 255 259 262 264 266 268 273 274 268 261 256 255 258 258 258 252 253 259 262 261 263 260 258 259 257 257
238 240 240 245 246 248 256 260 232 216 227 236 249 263 273 278 271 270 273 274 279 273 264 260 265 269 269 271 270 266 268 266 260 262 261 262 262 261 257 257 262 262 263 264 262 262 264 261 261
231 235 237 242 243 248 259 262 230 220 222 235 250 268 275 271 270 271 270 265 269 270 267 270 268 277 277 276 275 270 267 265 263 261 262 263 265 265 266 262 265 263 261 260 260 262 264 264 263
232 232 233 244 243 245 255 255 238 231 243 258 266 274 272 268 275 277 277 272 261 259 264 273 269 270 274 275 275 274 274 272 269 267 267 267 266 268 269 269 268 264 261 260 259 261 263 265 267
231 235 234 241 243 241 246 249 243 236 244 262 272 279 279 276 278 281 283 279 275 274 272 269 275 274 269 271 279 279 280 278 275 272 271 270 267 267 270 273 272 270 268 267 264 263 264 268 270
228 232 233 240 243 241 238 243 243 244 248 252 262 274 278 279 281 283 281 279 278 277 277 274 272 273 275 276 280 281 281 280 275 271 271 272 270 270 271 275 275 274 270 268 267 267 266 267 271
230 229 232 239 242 239 238 240 241 247 250 255 260 269 276 279 280 282 279 278 281 280 279 277 278 280 281 281 281 280 280 282 279 274 273 273 272 270 271 272 272 272 273 268 264 264 263 268 272
228 226 229 236 241 245 244 241 242 247 254 258 271 280 280 278 277 276 275 278 282 283 283 281 281 281 281 284 284 282 280 282 280 279 280 276 275 276 277 275 272 272 272 270 268 271 270 273 277
228 228 231 235 241 241 241 240 238 245 257 263 273 283 283 278 275 273 274 275 278 280 281 282 282 283 287 288 287 288 285 283 280 279 279 276 278 279 279 274 272 272 274 276 277 276 278 280 280
227 228 233 235 237 237 238 238 240 242 255 262 269 283 287 283 278 274 276 279 281 281 280 281 282 285 287 289 290 289 287 288 284 281 278 275 276 275 275 273 272 272 275 276 277 278 279 279 278
225 224 227 231 236 233 239 241 242 247 257 263 271 279 282 282 277 274 275 279 282 281 280 281 280 285 289 289 289 287 283 282 283 280 279 276 272 269 269 271 275 277 279 282 283 282 281 279 277
224 225 229 234 241 238 243 243 243 245 254 262 268 270 273 275 275 276 279 280 280 280 282 284 283 287 290 289 289 287 283 280 279 277 279 278 272 269 266 268 273 276 279 282 284 284 282 279 278
225 232 235 236 243 244 243 239 244 249 258 264 266 267 270 271 273 275 278 278 277 277 280 283 286 289 291 291 290 286 282 280 280 279 279 279 275 271 266 268 270 272 275 277 279 281 282 280 279
229 234 236 239 247 247 242 242 244 249 255 262 272 275 271 273 275 276 274 273 272 273 278 283 289 290 289 291 291 285 284 280 281 280 283 283 281 276 273 272 270 270 273 275 276 278 279 280 281
235 238 239 240 243 245 248 250 248 248 253 261 270 277 279 277 278 277 275 269 268 269 274 282 286 288 287 287 285 283 281 280 283 285 286 284 284 282 281 276 274 272 274 274 274 275 278 280 281
237 243 244 246 246 246 250 247 247 250 254 258 265 274 280 280 278 274 272 268 270 271 274 280 284 285 285 284 281 280 277 276 282 285 286 283 282 284 282 279 274 273 275 276 275 275 278 281 282
237 241 245 245 248 248 249 251 251 255 255 259 265 271 277 280 280 282 275 271 271 274 276 280 283 283 283 282 278 276 275 275 277 279 282 282 280 281 282 281 280 276 277 279 277 278 277 280 281
238 242 244 248 251 251 251 254 251 255 256 262 267 272 275 279 279 281 281 280 277 277 279 281 283 282 281 280 276 274 273 274 276 276 277 278 278 278 280 282 282 280 280 281 279 278 279 280 282
240 243 244 249 251 251 253 258 258 258 257 262 267 271 273 275 277 278 279 280 281 279 279 279 280 281 281 281 277 274 272 272 273 274 275 275 276 276 277 280 283 284 282 281 281 278 278 280 282
236 241 246 247 248 251 255 260 262 260 261 268 272 275 278 278 278 279 280 281 282 282 281 280 280 280 281 281 277 274 274 273 273 273 275 275 275 276 277 279 281 284 284 282 279 276 276 279 282
238 242 246 250 252 255 257 258 260 262 263 272 275 275 277 277 278 278 280 279 281 282 281 280 279 279 278 276 273 273 274 274 273 273 274 274 274 275 276 278 280 281 284 284 282 279 276 278 281
238 240 246 252 254 257 256 256 260 260 263 271 274 275 276 277 278 278 278 279 280 281 282 280 279 278 276 274 273 273 274 275 275 274 273 274 274 274 275 277 279 280 280 282 282 283 281 281 281
239 243 246 251 255 257 260 260 264 267 269 270 273 275 278 278 277 278 277 277 278 279 280 279 277 276 275 275 275 275 275 276 276 274 276 277 276 276 276 277 277 277 278 279 281 284 285 285 284
237 240 245 251 257 259 262 263 267 269 270 272 273 276 279 278 277 277 277 276 277 278 278 277 277 276 276 276 277 278 277 278 277 277 277 278 277 277 278 276 276 276 276 278 280 284 284 285 285
239 242 245 248 253 258 262 266 266 268 269 272 274 276 279 279 279 278 277 276 278 277 278 278 277 276 275 275 276 279 279 277 276 276 277 278 278 277 277 275 273 273 274 276 278 281 284 283 283
Height
5862 5862 5863 5865 5866 5865 5865 5866 5866 5867 5867 5867 5867 5868 5868 5869 5870 5873 5871 5870 5870 5870 5870 5870 5869 5869 5869 5868 5868 5867 5865 5862 5859 5861 5865 5867 5868 5869 5870 5870 5870 5871 5871 5871 5871 5871 5871 5871 5871
5861 5862 5864 5864 5864 5864 5865 5865 5865 5866 5866 5866 5866 5867 5867 5867 5868 5869 5869 5869 5869 5869 5869 5869 5869 5869 5869 5868 5868 5867 5865 5863 5861 5863 5866 5867 5868 5869 5869 5869 5870 5870 5870 5870 5870 5870 5870 5870 5870
5860 5861 5863 5863 5862 5863 5864 5863 5864 5865 5865 5865 5866 5866 5866 5867 5867 5867 5868 5868 5868 5868 5868 5868 5868 5868 5868 5868 5867 5867 5866 5865 5864 5865 5866 5867 5868 5868 5868 5868 5869 5869 5869 5869 5869 5869 5869 5869 5869
5860 5861 5862 5862 5862 5862 5862 5862 5863 5863 5864 5864 5865 5865 5865 5866 5866 5866 5866 5866 5867 5867 5867 5867 5867 5867 5867 5867 5867 5867 5866 5866 5865 5865 5866 5866 5867 5867 5867 5868 5868 5868 5868 5868 5868 5867 5867 5868 5868
5859 5860 5861 5861 5861 5861 5861 5861 5862 5862 5863 5863 5864 5864 5864 5865 5865 5865 5865 5865 5865 5866 5865 5866 5866 5866 5866 5866 5866 5866 5866 5865 5865 5865 5865 5865 5866 5866 5866 5866 5867 5867 5867 5867 5866 5866 5866 5866 5866
5859 5859 5860 5860 5860 5860 5860 5860 5860 5861 5861 5862 5862 5863 5863 5863 5864 5864 5864 5864 5864 5864 5864 5864 5864 5865 5865 5865 5865 5865 5865 5864 5864 5864 5864 5864 5865 5865 5865 5865 5865 5865 5865 5865 5865 5865 5865 5865 5864
5858 5858 5858 5859 5859 5859 5859 5859 5860 5860 5860 5861 5862 5862 5862 5862 5862 5862 5862 5862 5862 5862 5863 5863 5863 5863 5863 5863 5863 5863 5863 5863 5863 5863 5863 5863 5864 5864 5864 5864 5864 5864 5864 5864 5864 5863 5863 5863 5863
5856 5857 5857 5858 5858 5858 5859 5858 5859 5859 5860 5861 5861 5861 5861 5861 5861 5861 5861 5861 5861 5861 5861 5862 5862 5862 5862 5862 5862 5862 5862 5862 5862 5862 5862 5862 5862 5862 5862 5862 5862 5862 5861 5861 5862 5861 5861 5861 5861
5855 5856 5856 5857 5857 5857 5858 5858 5858 5858 5859 5859 5860 5860 5860 5860 5860 5860 5860 5860 5860 5860 5860 5860 5860 5860 5860 5860 5860 5860 5860 5860 5860 5860 5860 5860 5860 5860 5860 5860 5860 5860 5860 5859 5859 5859 5859 5859 5859
5853 5854 5855 5856 5856 5856 5857 5857 5858 5858 5858 5858 5859 5859 5858 5859 5859 5859 5859 5859 5859 5859 5859 5859 5859 5859 5859 5859 5859 5858 5858 5858 5858 5858 5858 5858 5858 5858 5858 5858 5857 5857 5858 5858 5857 5857 5857 5857 5856
5852 5853 5853 5854 5854 5855 5856 5856 5856 5856 5857 5857 5858 5857 5857 5857 5858 5858 5857 5858 5858 5858 5858 5857 5858 5857 5857 5857 5857 5857 5857 5857 5856 5856 5856 5856 5856 5856 5856 5855 5855 5855 5855 5855 5855 5855 5855 5855 5854
5851 5851 5852 5852 5853 5854 5854 5855 5855 5855 5856 5856 5856 5856 5856 5856 5856 5856 5856 5856 5856 5856 5856 5856 5856 5856 5856 5855 5855 5855 5855 5855 5855 5854 5854 5854 5854 5854 5853 5853 5853 5853 5853 5853 5853 5852 5852 5852 5852
5849 5850 5851 5851 5852 5852 5853 5853 5854 5854 5854 5854 5855 5855 5855 5855 5855 5855 5855 5855 5855 5855 5854 5854 5854 5854 5854 5854 5853 5853 5853 5853 5853 5852 5852 5852 5852 5851 5851 5850 5850 5850 5851 5851 5850 5850 5850 5850 5850
5848 5848 5849 5850 5850 5851 5851 5852 5852 5853 5853 5853 5854 5854 5853 5853 5853 5853 5853 5853 5853 5853 5853 5852 5852 5852 5852 5852 5852 5851 5851 5851 5850 5850 5850 5850 5849 5849 5849 5849 5848 5848 5848 5848 5848 5848 5848 5848 5847
5846 5847 5848 5848 5848 5849 5850 5850 5851 5851 5851 5852 5852 5852 5852 5851 5851 5851 5851 5851 5851 5851 5851 5851 5850 5850 5850 5850 5849 5849 5849 5848 5848 5848 5847 5847 5847 5847 5846 5846 5846 5846 5846 5846 5846 5846 5845 5845 5845
5844 5845 5846 5846 5847 5847 5849 5849 5849 5849 5850 5850 5850 5850 5850 5850 5850 5850 5850 5850 5849 5849 5849 5849 5849 5848 5848 5847 5847 5846 5846 5846 5846 5845 5845 5845 5845 5845 5844 5844 5844 5844 5844 5844 5843 5843 5843 5843 5843
5842 5843 5843 5844 5845 5845 5846 5847 5847 5847 5847 5848 5848 5849 5849 5848 5848 5848 5848 5848 5848 5847 5847 5847 5846 5846 5846 5845 5845 5844 5844 5843 5843 5843 5843 5842 5842 5842 5842 5842 5842 5842 5842 5841 5841 5841 5841 5840 5840
5840 5841 5842 5842 5843 5844 5844 5845 5845 5845 5845 5846 5846 5846 5846 5846 5846 5846 5846 5846 5845 5845 5845 5845 5844 5844 5843 5843 5842 5841 5841 5841 5841 5841 5840 5840 5840 5840 5839 5840 5839 5839 5839 5839 5839 5838 5838 5838 5837
5838 5839 5840 5840 5841 5841 5842 5843 5843 5843 5843 5844 5844 5844 5844 5844 5844 5844 5844 5843 5843 5843 5843 5842 5842 5841 5841 5840 5839 5839 5838 5838 5838 5838 5837 5837 5837 5837 5837 5837 5836 5836 5836 5836 5836 5836 5835 5835 5835
5835 5836 5837 5838 5838 5839 5839 5840 5840 5841 5841 5841 5842 5842 5841 5841 5841 5841 5841 5841 5841 5840 5840 5840 5839 5839 5838 5837 5837 5836 5836 5836 5835 5835 5835 5834 5834 5834 5834 5834 5833 5833 5833 5833 5833 5833 5832 5832 5832
5832 5834 5834 5835 5836 5836 5837 5837 5838 5838 5838 5838 5839 5839 5839 5839 5838 5838 5838 5838 5838 5838 5837 5837 5836 5836 5835 5835 5834 5834 5834 5833 5833 5832 5832 5831 5831 5831 5831 5830 5830 5830 5830 5830 5830 5829 5829 5829 5828
5830 5831 5832 5832 5833 5833 5834 5834 5835 5835 5835 5835 5836 5836 5836 5836 5836 5835 5835 5835 5835 5834 5834 5834 5833 5833 5832 5831 5831 5830 5830 5830 5830 5829 5829 5829 5828 5828 5827 5827 5827 5827 5827 5826 5826 5826 5825 5825 5825
5827 5828 5828 5829 5829 5830 5831 5831 5832 5832 5832 5832 5833 5833 5833 5833 5833 5832 5832 5831 5831 5831 5830 5830 5829 5829 5828 5827 5827 5826 5826 5826 5826 5825 5825 5825 5825 5824 5824 5824 5824 5823 5823 5823 5822 5822 5821 5821 5821
5823 5825 5825 5825 5826 5827 5828 5828 5829 5829 5829 5829 5829 5829 5829 5830 5829 5829 5829 5828 5827 5827 5826 5826 5825 5825 5824 5823 5822 5822 5822 5822 5821 5821 5821 5821 5821 5820 5820 5820 5819 5819 5818 5818 5818 5818 5817 5817 5816
5820 5821 5821 5821 5822 5823 5824 5823 5825 5825 5826 5826 5826 5825 5826 5826 5825 5825 5825 5824 5824 5823 5822 5822 5821 5820 5819 5819 5818 5817 5817 5817 5817 5817 5817 5816 5816 5816 5816 5816 5815 5815 5814 5814 5813 5813 5813 5813 5812
5816 5817 5818 5819 5819 5819 5819 5819 5822 5822 5822 5822 5822 5821 5821 5821 5821 5821 5820 5820 5819 5818 5817 5817 5816 5815 5815 5814 5814 5813 5813 5813 5812 5812 5812 5812 5812 5811 5811 5811 5811 5810 5810 5809 5809 5808 5808 5808 5807
5811 5812 5814 5815 5815 5815 5815 5816 5817 5818 5817 5818 5818 5817 5817 5817 5817 5816 5816 5815 5814 5813 5813 5812 5811 5810 5810 5809 5809 5809 5808 5808 5807 5807 5807 5807 5807 5806 5806 5806 5805 5805 5805 5804 5804 5803 5803 5802 5801
5807 5808 5809 5810 5810 5810 5811 5812 5813 5813 5814 5814 5814 5814 5813 5813 5812 5812 5811 5810 5810 5809 5808 5806 5805 5805 5804 5804 5804 5804 5803 5803 5802 5802 5802 5801 5801 5801 5801 5800 5800 5800 5800 5799 5799 5798 5797 5796 5796
5803 5804 5804 5805 5806 5806 5806 5810 5810 5810 5810 5810 5810 5809 5809 5808 5807 5807 5806 5805 5804 5803 5802 5801 5800 5800 5799 5799 5798 5798 5797 5797 5796 5796 5796 5796 5795 5795 5795 5795 5794 5794 5794 5794 5793 5792 5792 5790 5789
5797 5798 5799 5801 5801 5801 5802 5807 5805 5805 5805 5805 5804 5804 5803 5803 5802 5801 5800 5799 5799 5798 5797 5795 5795 5794 5794 5793 5793 5792 5792 5791 5791 5791 5790 5790 5789 5789 5789 5788 5788 5788 5788 5788 5787 5787 5786 5785 5784